[[[{"header":{"parameterUnit":"kt","parameterCategory":2,"dx":1,"dy":1,"la1":30.253999710083008,"la2":30.299108505249023,"lo1":-89.0895004272461,"lo2":-89.04439544677734,"nx":28,"ny":28,"refTime":"2022-10-25T21:00:00:Z","depth":0,"parameterNumber":1,"parameterNumberName":"U-component_of_WINDS"},"data":[8.1958,8.1971,8.1917,8.1906,8.1855,8.1838,8.1813,8.1776,8.1732,8.1704,8.1677,8.162,8.1551,8.1504,8.1471,8.1445,8.1436,8.1485,8.1446,8.1282,8.1255,8.1229,8.1224,8.1483,8.1483,8.1625,8.1626,8.1627,8.1856,8.1807,8.1784,8.1724,8.1704,8.1626,8.1571,8.1559,8.1543,8.1487,8.1455,8.1424,8.139,8.13,8.1258,8.1261,8.122,8.1254,8.1253,8.1243,8.1066,8.1061,8.1289,8.1289,8.1289,8.1289,8.1289,8.1289,8.1656,8.1664,8.1595,8.1567,8.1521,8.148,8.1478,8.1407,8.138,8.1329,8.1262,8.1242,8.1172,8.1086,8.1042,8.1025,8.0975,8.0992,8.0996,8.1003,8.1021,8.0834,8.1013,8.1012,8.1011,8.1011,8.101,0,8.1491,8.1445,8.1415,8.1372,8.1347,8.1306,8.1257,8.1253,8.1125,8.1108,8.1078,8.105,8.0994,8.0958,8.0901,8.0848,8.0759,8.0741,8.0754,8.0788,8.083,8.0811,8.0528,8.0735,8.0733,8.0731,8.0729,8.0728,8.1287,8.1301,8.1196,8.1184,8.1141,8.1121,8.1097,8.0982,8.0961,8.0882,8.0893,8.0854,8.0816,8.0773,8.0682,8.0637,8.0593,8.068,8.0585,8.0621,8.0597,8.0599,8.0601,8.0701,8.0704,8.0707,8.0709,0,8.1179,8.1081,8.1082,8.0973,8.0946,8.0966,8.0872,8.0873,8.0799,8.0789,8.0779,8.0662,8.0631,8.0524,8.0464,8.0409,8.0443,8.0399,8.047,8.0456,8.0526,8.0522,8.0761,8.0788,8.0516,8.0519,8.0521,0,8.0966,8.0986,8.084,8.0845,8.0864,8.0746,8.0768,8.0705,8.0638,8.0629,8.051,8.0504,8.0365,8.0343,8.0261,8.0268,8.0255,8.0214,8.0192,8.0225,8.0231,8.0209,8.0197,8.0136,8.0135,8.0134,8.0133,0,8.0807,8.0748,8.0756,8.0725,8.0607,8.0613,8.0563,8.0484,8.0459,8.0407,8.039,8.0338,8.0309,8.0271,8.0166,8.0106,8.017,8.0065,8.0128,8.0131,8.0145,8.0146,8.0387,8.0132,8.0131,8.0131,8.013,0,8.0618,8.0571,8.0594,8.0494,8.0482,8.0484,8.0426,8.0403,8.0327,8.0275,8.0233,8.0138,8.0131,8.0037,8.0027,7.998,7.996,7.9917,7.9919,7.9911,7.9808,7.9961,8.02,8.0222,7.9908,7.9906,7.9905,0,8.0467,8.0461,8.0357,8.038,8.0362,8.023,8.023,8.0165,8.0096,8.0069,7.9989,7.9958,7.9863,7.9837,7.9847,7.9763,7.9825,7.9751,7.9715,7.9715,7.9743,7.9961,8.0024,8.016,7.9879,7.9882,7.9884,0,8.0335,8.0187,8.0197,8.0158,8.0051,8.0032,8.0032,7.9974,7.9963,7.9898,7.9896,7.9844,7.9773,7.9729,7.9643,7.9659,7.9779,7.9577,7.9572,7.962,7.9854,7.9916,7.994,7.9719,7.9722,7.9724,7.9863,0,8.008,8.006,8.0083,7.9995,7.9962,7.9966,7.9848,7.983,7.9753,7.9676,7.9666,7.9575,7.9511,7.9504,7.9425,7.9494,7.9464,7.9385,7.9282,7.9426,7.9469,7.9486,7.9229,7.9225,7.9222,7.9219,0,0,7.996,7.9927,7.9807,7.9801,7.9766,7.9624,7.964,7.9588,7.9485,7.9464,7.9407,7.9322,7.9248,7.9247,7.9283,7.9254,7.9256,7.9207,7.9358,7.9374,7.9388,7.9436,7.9456,7.9214,7.9213,7.9211,7.921,0,7.9841,7.9774,7.979,7.9732,7.9641,7.9557,7.9562,7.9444,7.9394,7.938,7.9259,7.9237,7.9166,7.9107,7.9068,7.9206,7.9113,7.9194,7.9312,7.933,7.935,7.9368,7.942,7.944,7.9203,7.9203,7.9203,0,7.9692,7.9607,7.96,7.951,7.9447,7.9427,7.9294,7.9276,7.926,7.9096,7.9083,7.9015,7.8922,7.8935,7.8934,7.8881,7.8992,7.8931,7.8948,7.8944,7.8955,7.898,7.9002,7.8715,7.8714,7.8713,0,0,7.9605,7.9583,7.945,7.9475,7.9445,7.9318,7.9293,7.9211,7.9132,7.91,7.9009,7.8935,7.8893,7.8868,7.8821,7.885,7.8821,7.8876,7.8899,7.8919,7.8926,7.8942,7.8967,7.8709,7.8709,7.8708,0,0,7.9561,7.941,7.9344,7.9358,7.929,7.9157,7.9176,7.9091,7.9036,7.9022,7.8877,7.885,7.8858,7.8793,7.875,7.8782,7.8683,7.869,7.8823,7.885,7.8873,7.8888,7.8593,0,0,0,0,0,7.9377,7.9429,7.9372,7.9356,7.9236,7.919,7.9174,7.9057,7.8992,7.9011,7.8922,7.8822,7.8741,7.8699,7.8684,7.8732,7.8652,7.8662,7.8671,7.8849,7.8879,7.8904,0,0,0,0,0,0,7.9369,7.935,7.937,7.9242,7.9214,7.9187,7.9051,7.9021,7.8987,7.8969,7.8843,7.8818,7.8715,7.8699,7.8687,7.8736,7.8597,7.8656,7.8664,7.8672,7.8859,7.8884,7.8905,0,0,0,0,0,7.9363,7.9347,7.9186,7.924,7.9216,7.9074,7.9048,7.9022,7.8993,7.8852,7.8824,7.8908,7.872,7.8701,7.8691,7.8744,7.8605,7.8601,7.8661,7.8668,7.8674,7.8871,0,0,0,0,0,0,7.9358,7.9321,7.9178,7.9166,7.921,7.9073,7.9048,7.9023,7.8875,7.8849,7.891,7.8898,7.8724,7.8709,7.8695,7.8754,7.8611,7.8607,7.8604,7.8666,7.8672,7.8676,0,0,0,0,0,0,7.9329,7.9313,7.9172,7.9141,7.9124,7.9073,7.9051,7.9022,7.8875,7.8941,7.8926,7.8906,7.8742,7.8714,7.8703,7.8663,7.8615,7.8611,7.8609,7.8607,7.8671,7.8675,0,0,0,0,0,0,7.932,7.9305,7.9143,7.9131,7.9116,7.8974,7.9045,7.8927,7.8853,7.8949,7.8843,7.8838,7.8751,7.8737,7.8709,7.8675,7.8666,7.8615,7.8613,7.8611,7.8609,0,0,0,0,0,0,0,7.9312,7.9436,7.9249,7.9122,7.9109,7.9057,7.9054,7.9051,7.8852,7.8848,7.8844,7.884,7.8638,7.8634,7.8629,7.8684,0,0,7.8616,7.8614,0,0,0,0,0,0,0,0,7.9439,7.9437,7.9249,7.9246,7.9244,7.9057,7.9054,7.9051,7.8852,7.8848,7.8845,7.8842,7.8637,7.8633,7.863,0,0,0,0,0,0,0,0,0,0,0,0,0,0,0,7.9249,7.9247,0,7.9056,7.9054,7.9052,7.8851,7.8848,7.8846,7.8843,7.8636,7.8633,7.863,0,0,0,0,0,0,0,0,0,0,0,0,0,0,0,0,0,0,0,0,0,0,0,0,0,0,0,0,0,0,0,0,0,0,0,0,0,0,0,0,0,0,0,0,0,0,0,0,0,0,0,0,0,0,0,0,0,0,0,0,0,0,0,0,0,0,0,0,0]}],[{"header":{"parameterUnit":"kt","parameterCategory":2,"dx":1,"dy":1,"la1":30.253999710083008,"la2":30.299108505249023,"lo1":-89.0895004272461,"lo2":-89.04439544677734,"nx":28,"ny":28,"refTime":"2022-10-25T21:00:00:Z","depth":0,"parameterNumber":2,"parameterNumberName":"V-component_of_WINDS"},"data":[-1.1237,-1.0906,-1.0727,-1.0259,-1.0016,-0.9659,-0.9471,-0.9206,-0.8944,-0.8484,-0.8182,-0.7951,-0.7602,-0.7184,-0.6836,-0.6735,-0.6598,-0.6617,-0.6494,-0.66,-0.66,-0.6601,-0.6674,-0.6592,-0.6592,-0.6411,-0.641,-0.6409,-1.1329,-1.1091,-1.0794,-1.038,-1.0119,-0.9994,-0.9648,-0.9433,-0.9111,-0.8786,-0.848,-0.8052,-0.7684,-0.7319,-0.6927,-0.6749,-0.6658,-0.6656,-0.6662,-0.6607,-0.6714,-0.6793,-0.6736,-0.6736,-0.6736,-0.6736,-0.6736,-0.6736,-1.1447,-1.1257,-1.0905,-1.0576,-1.0317,-1.0037,-0.9816,-0.9544,-0.9238,-0.8823,-0.8652,-0.8277,-0.7903,-0.7333,-0.709,-0.6781,-0.6746,-0.6677,-0.6658,-0.6645,-0.6657,-0.6938,-0.6704,-0.6704,-0.6703,-0.6702,-0.6702,0,-1.1476,-1.134,-1.1042,-1.0689,-1.0438,-1.0142,-0.9836,-0.9693,-0.932,-0.908,-0.8714,-0.8468,-0.7976,-0.7599,-0.7186,-0.6941,-0.6767,-0.6728,-0.6679,-0.6757,-0.6881,-0.6806,-0.6985,-0.6734,-0.6734,-0.6733,-0.6733,-0.6733,-1.1578,-1.1378,-1.0918,-1.0732,-1.0522,-1.0223,-1.0004,-0.9691,-0.947,-0.9036,-0.8872,-0.8496,-0.8177,-0.7605,-0.7266,-0.689,-0.6799,-0.6725,-0.674,-0.6826,-0.6789,-0.6804,-0.6777,-0.6727,-0.6728,-0.6728,-0.6729,0,-1.1652,-1.1356,-1.0983,-1.0542,-1.0424,-1.0224,-0.9838,-0.9625,-0.9379,-0.9047,-0.8951,-0.8557,-0.8194,-0.7866,-0.7379,-0.7216,-0.6854,-0.6778,-0.6983,-0.6948,-0.6844,-0.6857,-0.6572,-0.6515,-0.6602,-0.6601,-0.6601,0,-1.1619,-1.1365,-1.0936,-1.0735,-1.0437,-1.0133,-0.9842,-0.9601,-0.9282,-0.9018,-0.8779,-0.8533,-0.8152,-0.7853,-0.7612,-0.7258,-0.7167,-0.7018,-0.6956,-0.7037,-0.7055,-0.6901,-0.6904,-0.683,-0.6832,-0.6833,-0.6834,0,-1.1764,-1.1234,-1.0908,-1.0737,-1.0236,-1.0085,-0.9866,-0.9505,-0.9289,-0.8954,-0.8807,-0.8435,-0.8228,-0.7937,-0.7634,-0.7656,-0.7194,-0.7161,-0.704,-0.7048,-0.695,-0.696,-0.6797,-0.6837,-0.6837,-0.6838,-0.6838,0,-1.1689,-1.1377,-1.0949,-1.0525,-1.0397,-1.0177,-0.9799,-0.9536,-0.9169,-0.9008,-0.8739,-0.8536,-0.8207,-0.8197,-0.7731,-0.7848,-0.7654,-0.7481,-0.7467,-0.7411,-0.7409,-0.7355,-0.7239,-0.7211,-0.7367,-0.7371,-0.7375,0,-1.1933,-1.1423,-1.1162,-1.0756,-1.0475,-1.0231,-0.9977,-0.9664,-0.9428,-0.9144,-0.8875,-0.8549,-0.8474,-0.8324,-0.8139,-0.7844,-0.7693,-0.7855,-0.7423,-0.7411,-0.7529,-0.742,-0.7484,-0.7303,-0.7427,-0.7421,-0.7418,0,-1.2085,-1.1489,-1.1436,-1.1227,-1.0774,-1.0534,-1.0245,-0.9861,-0.9688,-0.9359,-0.91,-0.8633,-0.8555,-0.8311,-0.8103,-0.7926,-0.7785,-0.7862,-0.7847,-0.7855,-0.7427,-0.749,-0.7461,-0.7682,-0.7675,-0.767,-0.7459,0,-1.2033,-1.1741,-1.1586,-1.1139,-1.0904,-1.0633,-1.03,-1.0094,-0.9926,-0.9684,-0.9297,-0.8943,-0.8537,-0.8419,-0.8247,-0.7952,-0.7946,-0.7865,-0.7825,-0.776,-0.768,-0.7649,-0.7972,-0.7969,-0.7966,-0.7964,0,0,-1.2337,-1.1912,-1.1633,-1.1349,-1.1133,-1.0883,-1.0622,-1.0378,-0.9893,-0.9743,-0.9722,-0.9014,-0.8725,-0.8287,-0.8241,-0.8077,-0.7987,-0.8024,-0.7795,-0.7778,-0.7761,-0.7683,-0.7656,-0.7959,-0.7958,-0.7957,-0.7956,0,-1.2251,-1.1992,-1.1745,-1.1486,-1.1093,-1.0852,-1.0794,-1.0353,-1.0184,-0.9809,-0.9593,-0.9318,-0.876,-0.8481,-0.8266,-0.8072,-0.7916,-0.7973,-0.7984,-0.7781,-0.7767,-0.7754,-0.7677,-0.7654,-0.7949,-0.795,-0.795,0,-1.2338,-1.2025,-1.1873,-1.1381,-1.1117,-1.0831,-1.0714,-1.0417,-1.0197,-0.9919,-0.9548,-0.9304,-0.8901,-0.8536,-0.8357,-0.8329,-0.7871,-0.7954,-0.7961,-0.7931,-0.7716,-0.7701,-0.7687,-0.787,-0.7871,-0.7872,0,0,-1.2307,-1.2036,-1.1596,-1.1336,-1.1187,-1.0825,-1.0638,-1.045,-1.0107,-0.997,-0.9653,-0.9315,-0.8984,-0.8774,-0.8445,-0.8093,-0.7977,-0.796,-0.7963,-0.7967,-0.7941,-0.7728,-0.7712,-0.7877,-0.7877,-0.7877,0,0,-1.2286,-1.1774,-1.167,-1.1329,-1.1018,-1.0557,-1.0404,-1.0259,-0.9934,-0.9926,-0.958,-0.9474,-0.9125,-0.889,-0.8993,-0.8422,-0.8391,-0.8359,-0.8589,-0.8589,-0.8592,-0.8652,-0.881,0,0,0,0,0,-1.2029,-1.1839,-1.1751,-1.1644,-1.1014,-1.0611,-1.0525,-1.0246,-1.0233,-1.0117,-0.9829,-0.9678,-0.8874,-0.8957,-0.8848,-0.8734,-0.7936,-0.7925,-0.7915,-0.8126,-0.813,-0.8133,0,0,0,0,0,0,-1.1985,-1.1857,-1.1754,-1.1294,-1.1149,-1.0614,-1.0529,-1.0447,-1.0237,-1.0216,-0.974,-0.9663,-0.9406,-0.8993,-0.8899,-0.8797,-0.8841,-0.7932,-0.7923,-0.7915,-0.8128,-0.8131,-0.8133,0,0,0,0,0,-1.1949,-1.1845,-1.0911,-1.1293,-1.1168,-1.0751,-1.0534,-1.0464,-1.0296,-0.9848,-0.9768,-1.0105,-0.9412,-0.9312,-0.8935,-0.8847,-0.8904,-0.887,-0.7926,-0.7919,-0.7913,-0.8129,0,0,0,0,0,0,-1.1921,-1.1772,-1.0879,-1.0829,-1.1347,-1.0775,-1.0677,-1.0482,-0.9935,-0.9855,-1.0198,-1.0187,-0.9412,-0.9335,-0.9259,-0.8881,-0.8956,-0.8921,-0.89,-0.7921,-0.7915,-0.791,0,0,0,0,0,0,-1.1826,-1.1733,-1.0853,-1.0937,-1.0894,-1.0798,-1.0711,-1.0347,-0.9931,-1.0313,-1.0288,-1.0199,-0.9519,-0.935,-0.9291,-0.8734,-0.8995,-0.8962,-0.8939,-0.8925,-0.7916,-0.7912,0,0,0,0,0,0,-1.1781,-1.17,-1.0947,-1.0915,-1.0877,-1.03,-1.0469,-0.9834,-1.0022,-1.0341,-1.0029,-1.0032,-0.9538,-0.9472,-0.9314,-0.8783,-0.8746,-0.8994,-0.8971,-0.8955,-0.8945,0,0,0,0,0,0,0,-1.1745,-1.2354,-1.1174,-1.0897,-1.0864,-1.0373,-1.0359,-1.0345,-1.0022,-1.0025,-1.0028,-1.0031,-0.9184,-0.9147,-0.9111,-0.8824,0,0,-0.8997,-0.8981,0,0,0,0,0,0,0,0,-1.2381,-1.2361,-1.1173,-1.1163,-1.1153,-1.0371,-1.036,-1.0348,-1.0023,-1.0025,-1.0027,-1.003,-0.9174,-0.9145,-0.9115,0,0,0,0,0,0,0,0,0,0,0,0,0,0,0,-1.1172,-1.1163,0,-1.0369,-1.036,-1.0351,-1.0023,-1.0025,-1.0027,-1.0029,-0.9166,-0.9142,-0.9117,0,0,0,0,0,0,0,0,0,0,0,0,0,0,0,0,0,0,0,0,0,0,0,0,0,0,0,0,0,0,0,0,0,0,0,0,0,0,0,0,0,0,0,0,0,0,0,0,0,0,0,0,0,0,0,0,0,0,0,0,0,0,0,0,0,0,0,0,0]}]]]